Location: Härggis
(46.9540°N, 8.4897°E)
Time: 21:44:36
(UTC+00:00)

Cosmos 2228 - Pass Details

Date: 27 May 2022
Orbit: 586 x 617 km, 82.5° (Epoch: 03 July)

Event Time Altitude Azimuth Distance (km) Brightness Sun altitude
Rises 02:08:20 0° 347° (NNW) 2,893 7.1 -12.3°
Reaches altitude 10° 02:10:35 10° 345° (NNW) 1,979 6.1 -12.0°
Maximum altitude 02:14:55 62° 265° (W) 687 3.1 -11.6°
Drops below altitude 10° 02:19:10 10° 185° (S) 1,944 5.1 -11.1°
Enters shadow 02:19:15 10° 184° (S) 1,982 5.2 -11.1°
